This is the latest recevied weather packets stored in our database for station/object N5YHM-13. If no packets are shown the sender has not sent any weather packets the latest 10 day(s).
| Time | Temp. | Humidity | Pressure | Rain* | Wind** | Luminosity | Snow |
|---|---|---|---|---|---|---|---|
| 1777855806 | 18.89° C | 72% | 1019.8 hPa | 0 mm | - | 0 W/m² | - |
| 1777855504 | 19.44° C | 69% | 1020 hPa | 0 mm | - | 0 W/m² | - |
| 1777855200 | 19.44° C | 70% | 1019.8 hPa | 0 mm | - | 0 W/m² | - |
| 1777854896 | 19.44° C | 68% | 1019.7 hPa | 0 mm | - | 0 W/m² | - |
| 1777854594 | 20° C | 67% | 1019.5 hPa | 0 mm | - | 1 W/m² | - |
| 1777854291 | 20° C | 66% | 1019.7 hPa | 0 mm | - | 1 W/m² | - |
| 1777853988 | 20.56° C | 64% | 1019.6 hPa | 0 mm | - | 1 W/m² | - |
| 1777853685 | 20.56° C | 62% | 1019.8 hPa | 0 mm | - | 1 W/m² | - |
| 1777853381 | 21.11° C | 61% | 1019.8 hPa | 0 mm | - | 2 W/m² | - |
| 1777853079 | 21.11° C | 56% | 1019.6 hPa | 0 mm | - | 2 W/m² | - |
| 1777852776 | 21.67° C | 58% | 1019.6 hPa | 0 mm | - | 2 W/m² | - |
| 1777852474 | 21.67° C | 54% | 1019.6 hPa | 0 mm | - | 2 W/m² | - |
| 1777852171 | 21.67° C | 56% | 1019.7 hPa | 0 mm | - | 3 W/m² | - |
| 1777851868 | 22.22° C | 54% | 1019.8 hPa | 0 mm | - | 3 W/m² | - |
| 1777851566 | 22.22° C | 55% | 1019.6 hPa | 0 mm | - | 4 W/m² | - |
| 1777851262 | 22.78° C | 52% | 1019.8 hPa | 0 mm | - | 3 W/m² | - |
| 1777850959 | 22.78° C | 52% | 1019.8 hPa | 0 mm | - | 9 W/m² | - |
| 1777850656 | 22.78° C | 52% | 1019.9 hPa | 0 mm | - | 4 W/m² | - |
| 1777850354 | 22.78° C | 51% | 1019.8 hPa | 0 mm | - | 4 W/m² | - |
| 1777850051 | 22.78° C | 49% | 1020 hPa | 0 mm | - | 5 W/m² | - |
| 1777849747 | 22.78° C | 49% | 1019.7 hPa | 0 mm | - | 17 W/m² | - |
| 1777849444 | 22.78° C | 49% | 1019.8 hPa | 0 mm | - | 4 W/m² | - |
| 1777849142 | 22.78° C | 49% | 1019.9 hPa | 0 mm | - | 5 W/m² | - |
| 1777848837 | 22.78° C | 50% | 1019.7 hPa | 0 mm | - | 4 W/m² | - |
| 1777848534 | 22.78° C | 49% | 1019.9 hPa | 0 mm | - | 5 W/m² | - |
* Rain latest hour (hover to see other rain measurements)
** Current wind speed in m/s (hover to see current wind gust speed)